Content
SEND FEEDBACK

Daily
Averages
Monthly
Summary
United States of America

MADISON - UNIVERSITY OF WISCONSIN, WISCONSIN


Home > North America > United States > Wisconsin
Elevation: 870 feet     Latitude: 43 02N     Longitude: 089 26W

WEATHER
 
SELECT A DAY
Number of Records: 207,651;   Date Range: 1/1/95 - 9/18/14
 
SHARE

PRINT THIS DATA

[ ← Previous Day ]
WEATHER ALMANAC - JANUARY 31, 2013
[ Next Day → ]
[ °C ]   °F
Weather ElementAverageHighLow
Temperature10 °F15.8 °F (1:08 am)1 °F (11:53 pm)
Dewpoint2.7 °F8.1 °F (12:53 am)-6 °F (10:53 pm)
Humidity72.5 %81 % (4:53 am)61 % (12:53 pm)
Barometer29.89 in30.19 in (11:53 pm)29.64 in (1:08 am)
Wind Speed10 mph16.1 mph (11:01 am)
Wind Gust26.5 mph (11:01 am)
Weather ElementAverage
Visibility4.5 mi
Wind DirectionWNW (289 °)

Weather ElementTotal
Precipitation0.05 in
Heating Degree Days56.6 (Base 65)
Averaged from 49 records on January 31, 2013
WEATHER CONDITIONS BREAKOUT
WIND DIRECTION BREAKOUT
WEATHER BY HOUR - JANUARY 31, 2013
[ °C ]   °F
Local TimeTemperatureDewpointHumidityBarometerVisibilityWind DirectionWind SpeedGust SpeedPrecipitationEventsConditions
12:53 AM15.1 °F8.1 °F74 %29.67 in5.0 miWNW (300°)12.7 mph20.7 mph0.00 inSnowLight Snow
1:08 AM15.8 °F6.8 °F68 %29.64 in4.0 miWNW (300°)13.8 mph21.9 mph0.00 inSnowLight Snow
1:53 AM15.1 °F7.0 °F70 %29.70 in5.0 miWNW (300°)6.9 mph0.00 inSnowLight Snow
2:28 AM14.0 °F6.8 °F73 %29.66 in5.0 miWest (280°)8.1 mph16.1 mph0.00 inSnowLight Snow
2:53 AM14.0 °F7.0 °F74 %29.71 in5.0 miWest (280°)11.5 mph0.00 inSnowLight Snow
3:53 AM14.0 °F6.1 °F71 %29.71 in5.0 miWNW (300°)9.2 mph0.00 inSnowLight Snow
4:32 AM14.0 °F6.8 °F73 %29.68 in5.0 miWNW (290°)9.2 mph0.00 inSnowLight Snow
4:53 AM12.9 °F8.1 °F81 %29.73 in5.0 miWNW (290°)8.1 mph0.00 inSnowLight Snow
5:53 AM12.0 °F3.9 °F70 %29.75 in4.0 miWNW (300°)9.2 mph0.00 inSnowLight Snow
6:53 AM10.9 °F3.0 °F70 %29.78 in7.0 miWNW (300°)12.7 mph20.7 mph0.00 inMostly Cloudy
7:53 AM10.9 °F3.9 °F73 %29.81 in10.0 miNW (310°)5.8 mph0.00 inSnowLight Snow
8:53 AM12.0 °F3.0 °F67 %29.83 in8.0 miWNW (290°)9.2 mph17.3 mph0.00 inMostly Cloudy
9:53 AM12.9 °F3.0 °F65 %29.85 in9.0 miWNW (290°)8.1 mph18.4 mphMostly Cloudy
10:06 AM12.2 °F1.4 °F62 %29.81 in9.0 miWNW (290°)15.0 mph21.9 mph0.00 inSnowLight Snow
10:35 AM10.4 °F3.2 °F73 %29.82 inWNW (290°)11.5 mph18.4 mph0.00 inSnowLight Snow
10:37 AM10.4 °F3.2 °F73 %29.82 in2.5 miWNW (290°)10.4 mph17.3 mph0.00 inSnowLight Snow
10:43 AM10.4 °F3.2 °F73 %29.83 in3.0 miWNW (300°)12.7 mph21.9 mph0.00 inSnowLight Snow
10:53 AM10.9 °F1.9 °F67 %29.88 in7.0 miWNW (300°)10.4 mph19.6 mph0.00 inMostly Cloudy
11:01 AM12.2 °F1.4 °F62 %29.83 in10.0 miWNW (300°)16.1 mph26.5 mphMostly Cloudy
11:53 AM12.0 °F3.0 °F67 %29.89 in10.0 miWNW (290°)11.5 mph0.00 inMostly Cloudy
12:53 PM12.0 °F1.0 °F61 %29.90 in10.0 miWNW (290°)13.8 mph19.6 mphMostly Cloudy
1:53 PM12.0 °F3.0 °F67 %29.92 in3.0 miWest (280°)9.2 mph17.3 mph0.00 inSnowLight Snow
2:08 PM10.4 °F3.2 °F73 %29.87 in1.0 miWNW (290°)9.2 mph0.00 inSnowLight Snow
2:25 PM10.4 °F3.2 °F73 %29.87 in1.0 miWNW (300°)6.9 mph0.00 inSnowLight Snow
2:30 PM12.2 °F3.2 °F67 %29.88 in1.0 miWNW (290°)12.7 mph16.1 mph0.00 inSnowLight Snow
2:35 PM10.4 °F3.2 °F73 %29.88 in0.2 miWNW (300°)9.2 mph18.4 mph0.00 inSnowSnow
2:41 PM10.4 °F5.0 °F79 %29.88 in0.2 miWNW (290°)6.9 mph0.00 inSnowSnow
2:50 PM10.4 °F5.0 °F79 %29.88 in1.0 miWNW (290°)8.1 mph20.7 mph0.00 inSnowLight Snow
2:53 PM10.9 °F5.0 °F77 %29.94 in1.0 miWest (280°)12.7 mph20.7 mph0.00 inSnowLight Snow
3:04 PM10.4 °F5.0 °F79 %29.89 in0.5 miWNW (290°)10.4 mph0.00 inSnowLight Snow
3:33 PM10.4 °F3.2 °F73 %29.90 in1.2 miNW (310°)9.2 mph0.01 inSnowLight Snow
3:48 PM10.4 °F1.4 °F67 %29.91 in2.0 miNW (320°)11.5 mph21.9 mph0.02 inSnowLight Snow
3:53 PM10.0 °F1.9 °F70 %29.97 in2.0 miWNW (300°)9.2 mph21.9 mph0.02 inSnowLight Snow
3:58 PM10.4 °F1.4 °F67 %29.91 in3.0 miWNW (300°)9.2 mph18.4 mph0.00 inSnowLight Snow
4:53 PM9.0 °F1.9 °F73 %30.00 in3.0 miVariable6.9 mph0.00 inSnowLight Snow
5:04 PM8.6 °F3.2 °F79 %29.95 in2.0 miWNW (290°)11.5 mph17.3 mph0.00 inSnowLight Snow
5:07 PM8.6 °F3.2 °F79 %29.95 in1.5 miWNW (290°)11.5 mph17.3 mph0.00 inSnowLight Snow
5:16 PM8.6 °F3.2 °F79 %29.95 in2.0 miWNW (300°)11.5 mph0.00 inSnowLight Snow
5:29 PM8.6 °F3.2 °F79 %29.96 in2.0 miWNW (300°)8.1 mph16.1 mph0.00 inSnowLight Snow
5:53 PM8.1 °F1.0 °F73 %30.03 in2.0 miWNW (300°)9.2 mph20.7 mph0.00 inSnowLight Snow
6:13 PM6.8 °F1.4 °F79 %29.98 in4.0 miWNW (290°)8.1 mph16.1 mph0.00 inSnowLight Snow
6:45 PM6.8 °F1.4 °F79 %30.01 in2.0 miWNW (290°)10.4 mph17.3 mph0.00 inSnowLight Snow
6:53 PM6.1 °F1.0 °F80 %30.07 in2.0 miWNW (300°)11.5 mph18.4 mph0.00 inSnowLight Snow
7:53 PM5.0 °F-0.9 °F76 %30.11 in5.0 miWNW (290°)12.7 mph19.6 mph0.00 inSnowLight Snow
8:20 PM3.2 °F-2.2 °F78 %30.06 in5.0 miWNW (290°)8.1 mph0.00 inSnowLight Snow
8:53 PM3.0 °F-2.9 °F76 %30.13 in10.0 miWNW (300°)5.8 mph0.00 inPartly Cloudy
9:53 PM1.9 °F-5.1 °F72 %30.16 in10.0 miNW (310°)9.2 mph16.1 mphClear
10:53 PM1.9 °F-6.0 °F69 %30.17 in10.0 miWNW (300°)6.9 mphClear
11:53 PM1.0 °F-6.0 °F72 %30.19 in10.0 miWNW (290°)9.2 mphClear
Hourly data recorded from KMSN, located miles away from Madison - University of Wisconsin, Wisconsin







STORIES FROM OUR PARTNERS